| time (UTC) | temp F | wind direction | speed knots | gust knots | rain 1hr in | rain 24hr in | rain mn in | humidity % | barometer mb |
| 20260906044553 | 74 | 12 | 0.0 | 1.7 | 0.00 | 0.00 | 0.00 | 87 | 1014.6 |
| 20260906043046 | 74 | 60 | 0.0 | 0.9 | 0.00 | 0.00 | 0.00 | 86 | 1014.3 |
| 20260906041542 | 75 | 113 | 0.0 | 1.7 | 0.00 | 0.00 | 0.00 | 86 | 1014.2 |
| 20260906040121 | 75 | 68 | 0.0 | 0.9 | 0.00 | 0.00 | 0.00 | 85 | 1014.1 |
| 20260906034538 | 76 | 34 | 0.0 | 2.6 | 0.00 | 0.00 | 0.00 | 85 | 1014.0 |
| 20260906033051 | 76 | 355 | 0.0 | 0.9 | 0.00 | 0.00 | 0.00 | 85 | 1014.0 |
| 20260906031535 | 77 | 345 | 0.0 | 0.9 | 0.00 | 0.00 | 0.00 | 84 | 1013.6 |
| 20260906030035 | 77 | 318 | 0.0 | 2.6 | 0.00 | 0.00 | 0.00 | 83 | 1013.7 |
| 20260906024533 | 78 | 323 | 0.0 | 2.6 | 0.00 | 0.00 | 0.00 | 82 | 1013.7 |
| 20260906023032 | 78 | 68 | 0.0 | 3.5 | 0.00 | 0.00 | 0.00 | 81 | 1013.5 |
| 20260906021531 | 79 | 42 | 0.0 | 3.5 | 0.00 | 0.00 | 0.00 | 81 | 1013.5 |
| 20260906020030 | 79 | 300 | 0.0 | 1.7 | 0.00 | 0.00 | 0.00 | 80 | 1013.4 |
| 20260906014529 | 80 | 88 | 0.0 | 5.2 | 0.00 | 0.00 | 0.00 | 79 | 1013.1 |
| 20260906013029 | 81 | 25 | 0.0 | 7.0 | 0.00 | 0.00 | 0.00 | 78 | 1013.0 |
| 20260906011526 | 82 | 138 | 0.0 | 7.0 | 0.00 | 0.00 | 0.00 | 76 | 1012.9 |
| 20260906010026 | 83 | 110 | 0.0 | 3.5 | 0.00 | 0.00 | 0.00 | 75 | 1012.6 |
| 20260906004526 | 84 | 340 | 0.0 | 2.6 | 0.00 | 0.00 | 0.00 | 75 | 1012.2 |
| 20260906003025 | 85 | 340 | 0.0 | 4.3 | 0.00 | 0.00 | 0.00 | 73 | 1012.1 |
| 20260906001525 | 86 | 339 | 0.0 | 6.1 | 0.00 | 0.00 | 0.00 | 72 | 1012.2 |
| 20260906000024 | 88 | 332 | 0.9 | 4.3 | 0.00 | 0.00 | 0.00 | 71 | 1012.1 |
| 20260905234524 | 89 | 30 | 0.0 | 5.2 | 0.00 | 0.00 | 0.00 | 69 | 1011.9 |
| 20260905233124 | 91 | 341 | 0.0 | 3.5 | 0.00 | 0.00 | 0.00 | 65 | 1011.7 |
| 20260905231523 | 91 | 320 | 0.9 | 4.3 | 0.00 | 0.00 | 0.00 | 64 | 1011.4 |
| 20260905230021 | 92 | 9 | 0.0 | 2.6 | 0.00 | 0.00 | 0.00 | 64 | 1011.5 |
| 20260905224546 | 92 | 319 | 0.9 | 4.3 | 0.00 | 0.00 | 0.00 | 63 | 1011.5 |
| 20260905223021 | 92 | 343 | 0.0 | 4.3 | 0.00 | 0.00 | 0.00 | 64 | 1011.4 |
| 20260905221519 | 92 | 336 | 0.0 | 4.3 | 0.00 | 0.00 | 0.00 | 63 | 1011.5 |
| 20260905220018 | 92 | 351 | 0.0 | 1.7 | 0.00 | 0.00 | 0.00 | 65 | 1011.5 |
| 20260905214517 | 92 | 53 | 0.0 | 1.7 | 0.00 | 0.00 | 0.00 | 63 | 1011.4 |
| 20260905213017 | 92 | 205 | 0.0 | 3.5 | 0.00 | 0.00 | 0.00 | 65 | 1011.4 |
| 20260905211536 | 91 | 274 | 0.0 | 1.7 | 0.00 | 0.00 | 0.00 | 65 | 1011.5 |
| 20260905210023 | 92 | 79 | 0.9 | 2.6 | 0.00 | 0.00 | 0.00 | 65 | 1011.4 |
| 20260905204515 | 92 | 209 | 0.0 | 3.5 | 0.00 | 0.00 | 0.00 | 64 | 1011.5 |
| 20260905203014 | 93 | 328 | 0.0 | 4.3 | 0.00 | 0.00 | 0.00 | 62 | 1011.6 |
| 20260905201518 | 93 | 284 | 0.0 | 2.6 | 0.00 | 0.00 | 0.00 | 63 | 1011.7 |
| 20260905200021 | 94 | 247 | 1.7 | 5.2 | 0.00 | 0.00 | 0.00 | 61 | 1011.8 |
| 20260905194511 | 93 | 38 | 0.0 | 4.3 | 0.00 | 0.00 | 0.00 | 62 | 1011.8 |
| 20260905193011 | 94 | 317 | 0.0 | 4.3 | 0.00 | 0.00 | 0.00 | 61 | 1011.9 |
| 20260905191509 | 94 | 46 | 0.0 | 6.1 | 0.00 | 0.00 | 0.00 | 62 | 1011.9 |
| 20260905190009 | 94 | 303 | 0.9 | 5.2 | 0.00 | 0.00 | 0.00 | 57 | 1012.0 |
| 20260905184515 | 94 | 270 | 0.0 | 5.2 | 0.00 | 0.00 | 0.00 | 59 | 1012.1 |
| 20260905183005 | 94 | 282 | 2.6 | 5.2 | 0.00 | 0.00 | 0.00 | 59 | 1012.2 |
| 20260905181505 | 94 | 316 | 0.0 | 2.6 | 0.00 | 0.00 | 0.00 | 61 | 1012.4 |
| 20260905180006 | 94 | 288 | 0.9 | 3.5 | 0.00 | 0.00 | 0.00 | 62 | 1012.5 |
| 20260905174502 | 94 | 270 | 0.0 | 2.6 | 0.00 | 0.00 | 0.00 | 61 | 1012.7 |
| 20260905173123 | 93 | 321 | 1.7 | 6.1 | 0.00 | 0.00 | 0.00 | 63 | 1012.6 |
| 20260905171557 | 92 | 321 | 0.0 | 9.6 | 0.00 | 0.00 | 0.00 | 62 | 1012.7 |
| 20260905170109 | 93 | 305 | 0.0 | 2.6 | 0.00 | 0.00 | 0.00 | 61 | 1012.9 |
| 20260905164602 | 92 | 319 | 0.9 | 3.5 | 0.00 | 0.00 | 0.00 | 62 | 1013.0 |
| 20260905163049 | 91 | 330 | 0.0 | 4.3 | 0.00 | 0.00 | 0.00 | 62 | 1013.0 |
| 20260905161603 | 91 | 316 | 0.9 | 3.5 | 0.00 | 0.00 | 0.00 | 63 | 1013.0 |
| 20260905160046 | 90 | 303 | 0.0 | 4.3 | 0.00 | 0.00 | 0.00 | 63 | 1012.9 |
| 20260905154545 | 90 | 342 | 0.0 | 4.3 | 0.00 | 0.00 | 0.00 | 64 | 1013.0 |
| 20260905153040 | 90 | 281 | 0.0 | 2.6 | 0.00 | 0.00 | 0.00 | 66 | 1012.8 |
| 20260905151538 | 89 | 266 | 1.7 | 4.3 | 0.00 | 0.00 | 0.00 | 66 | 1012.9 |
| 20260905150035 | 88 | 267 | 0.9 | 4.3 | 0.00 | 0.00 | 0.00 | 70 | 1012.8 |
| 20260905144532 | 87 | 276 | 0.0 | 5.2 | 0.00 | 0.00 | 0.00 | 72 | 1012.6 |
| 20260905143029 | 86 | 266 | 0.9 | 3.5 | 0.00 | 0.00 | 0.00 | 72 | 1012.5 |
| 20260905141527 | 86 | 290 | 0.0 | 4.3 | 0.00 | 0.00 | 0.00 | 72 | 1012.4 |
| 20260905140024 | 85 | 301 | 0.0 | 0.0 | 0.00 | 0.00 | 0.00 | 73 | 1012.4 |
| 20260905134521 | 84 | 282 | 0.0 | 0.0 | 0.00 | 0.00 | 0.00 | 75 | 1012.3 |
| 20260905133024 | 82 | 271 | 0.0 | 0.0 | 0.00 | 0.00 | 0.00 | 80 | 1012.3 |
| 20260905131523 | 80 | 276 | 0.0 | 0.9 | 0.00 | 0.00 | 0.00 | 84 | 1012.5 |
| 20260905130013 | 79 | 276 | 0.0 | 0.9 | 0.00 | 0.00 | 0.00 | 87 | 1012.5 |
| 20260905124512 | 78 | 276 | 0.0 | 0.9 | 0.00 | 0.00 | 0.00 | 89 | 1012.3 |
| 20260905123012 | 77 | 283 | 0.0 | 0.0 | 0.00 | 0.00 | 0.00 | 90 | 1012.2 |
| 20260905121513 | 76 | 283 | 0.0 | 0.0 | 0.00 | 0.00 | 0.00 | 91 | 1012.1 |
| 20260905120010 | 76 | 283 | 0.0 | 0.0 | 0.00 | 0.00 | 0.00 | 91 | 1012.1 |
| 20260905114510 | 76 | 283 | 0.0 | 0.0 | 0.00 | 0.00 | 0.00 | 91 | 1011.9 |
| 20260905113012 | 76 | 283 | 0.0 | 0.0 | 0.00 | 0.00 | 0.00 | 91 | 1011.8 |
| 20260905111508 | 76 | 283 | 0.0 | 0.0 | 0.00 | 0.00 | 0.00 | 91 | 1011.7 |
| 20260905110006 | 76 | 283 | 0.0 | 0.0 | 0.00 | 0.00 | 0.00 | 90 | 1011.7 |
| 20260905104504 | 77 | 283 | 0.0 | 0.0 | 0.00 | 0.00 | 0.00 | 90 | 1011.6 |
| 20260905103006 | 77 | 283 | 0.0 | 0.0 | 0.00 | 0.00 | 0.00 | 89 | 1011.8 |
| 20260905101502 | 77 | 283 | 0.0 | 0.0 | 0.00 | 0.00 | 0.00 | 88 | 1011.8 |
| 20260905100002 | 77 | 283 | 0.0 | 0.0 | 0.00 | 0.00 | 0.00 | 88 | 1011.8 |
| 20260905094601 | 78 | 283 | 0.0 | 0.0 | 0.00 | 0.00 | 0.00 | 88 | 1011.7 |
| 20260905093059 | 78 | 284 | 0.0 | 0.0 | 0.00 | 0.00 | 0.00 | 88 | 1011.5 |
| 20260905091604 | 78 | 284 | 0.0 | 0.0 | 0.00 | 0.00 | 0.00 | 87 | 1011.8 |
| 20260905090057 | 78 | 284 | 0.0 | 0.0 | 0.00 | 0.00 | 0.00 | 87 | 1011.7 |
| 20260905084559 | 78 | 284 | 0.0 | 0.0 | 0.00 | 0.00 | 0.00 | 86 | 1011.9 |
| 20260905083107 | 78 | 284 | 0.0 | 0.0 | 0.00 | 0.00 | 0.00 | 85 | 1011.9 |
| 20260905081552 | 79 | 284 | 0.0 | 0.0 | 0.00 | 0.00 | 0.00 | 84 | 1011.9 |
| 20260905080050 | 79 | 284 | 0.0 | 0.9 | 0.00 | 0.00 | 0.00 | 85 | 1012.0 |
| 20260905074549 | 79 | 284 | 0.0 | 0.0 | 0.00 | 0.00 | 0.00 | 85 | 1012.1 |
| 20260905073047 | 80 | 284 | 0.0 | 0.0 | 0.00 | 0.00 | 0.00 | 85 | 1012.1 |
| 20260905071548 | 80 | 284 | 0.0 | 0.0 | 0.00 | 0.00 | 0.00 | 85 | 1012.2 |
| 20260905070048 | 80 | 284 | 0.0 | 0.0 | 0.00 | 0.00 | 0.00 | 85 | 1012.0 |
| 20260905064549 | 80 | 284 | 0.0 | 0.0 | 0.00 | 0.00 | 0.00 | 86 | 1012.2 |
| 20260905063042 | 80 | 284 | 0.0 | 0.0 | 0.00 | 0.00 | 0.00 | 85 | 1012.3 |
| 20260905061544 | 80 | 284 | 0.0 | 0.0 | 0.00 | 0.00 | 0.00 | 84 | 1012.5 |
| 20260905060045 | 81 | 284 | 0.0 | 0.0 | 0.00 | 0.00 | 0.00 | 84 | 1012.4 |
| 20260905054607 | 81 | 284 | 0.0 | 0.0 | 0.00 | 0.00 | 0.00 | 84 | 1012.4 |
| 20260905053040 | 81 | 284 | 0.0 | 0.0 | 0.00 | 0.00 | 0.00 | 83 | 1012.3 |
| 20260905051535 | 81 | 284 | 0.0 | 0.0 | 0.00 | 0.00 | 0.00 | 83 | 1012.1 |
| 20260905050032 | 81 | 284 | 0.0 | 0.0 | 0.00 | 0.00 | 0.00 | 82 | 1012.2 |